Time,TemperatureF,DewpointF,PressureIn,WindDirection,WindDirectionDegrees,WindSpeedMPH,WindSpeedGustMPH,Humidity,HourlyPrecipIn,Conditions,Clouds,dailyrainin,SoftwareType,DateUTC
2013-07-31 00:01:00,65.1,60.4,30.11,WSW,250,0.0,0.0,85,0.00,,,0.00,meteohub,2013-07-31 04:01:00,
2013-07-31 00:02:00,65.1,60.4,30.11,WSW,250,0.0,0.0,85,0.00,,,0.00,meteohub,2013-07-31 04:02:00,
2013-07-31 00:07:00,65.1,60.4,30.11,WSW,250,0.0,0.0,85,0.00,,,0.00,meteohub,2013-07-31 04:07:00,
2013-07-31 00:12:00,65.1,60.4,30.11,WSW,250,0.0,0.0,85,0.00,,,0.00,meteohub,2013-07-31 04:12:00,
2013-07-31 00:17:00,64.9,60.3,30.11,WSW,250,0.0,0.0,85,0.00,,,0.00,meteohub,2013-07-31 04:17:00,
2013-07-31 00:22:00,64.9,60.3,30.11,WSW,251,0.0,0.0,85,0.00,,,0.00,meteohub,2013-07-31 04:22:00,
2013-07-31 00:27:00,64.9,60.6,30.11,WSW,250,0.0,0.0,86,0.00,,,0.00,meteohub,2013-07-31 04:27:00,
2013-07-31 00:32:00,64.8,60.4,30.11,WSW,250,0.0,0.0,86,0.00,,,0.00,meteohub,2013-07-31 04:32:00,
2013-07-31 00:37:00,64.8,60.4,30.11,WSW,250,0.0,0.0,86,0.00,,,0.00,meteohub,2013-07-31 04:37:00,
2013-07-31 00:42:00,64.6,60.3,30.11,WSW,251,0.0,0.0,86,0.00,,,0.00,meteohub,2013-07-31 04:42:00,
2013-07-31 00:47:00,64.6,60.3,30.11,WSW,250,0.0,0.0,86,0.00,,,0.00,meteohub,2013-07-31 04:47:00,
2013-07-31 00:52:00,64.6,60.3,30.11,WSW,250,0.0,0.0,86,0.00,,,0.00,meteohub,2013-07-31 04:52:00,
2013-07-31 00:57:00,64.4,60.4,30.11,WSW,250,0.0,0.0,87,0.00,,,0.00,meteohub,2013-07-31 04:57:00,
2013-07-31 01:02:00,64.4,60.4,30.10,WSW,250,0.0,0.0,87,0.00,,,0.00,meteohub,2013-07-31 05:02:00,
2013-07-31 01:07:00,64.2,60.3,30.10,WSW,250,0.0,0.0,87,0.00,,,0.00,meteohub,2013-07-31 05:07:00,
2013-07-31 01:12:00,64.2,60.3,30.10,WSW,250,0.0,0.0,87,0.00,,,0.00,meteohub,2013-07-31 05:12:00,
2013-07-31 01:17:00,64.2,60.3,30.10,WSW,250,0.0,0.0,87,0.00,,,0.00,meteohub,2013-07-31 05:17:00,
2013-07-31 01:22:00,64.0,60.4,30.10,WSW,250,0.0,0.0,88,0.00,,,0.00,meteohub,2013-07-31 05:22:00,
2013-07-31 01:27:00,64.0,60.4,30.10,WSW,250,0.0,0.0,88,0.00,,,0.00,meteohub,2013-07-31 05:27:00,
2013-07-31 01:32:00,64.0,60.4,30.10,WSW,250,0.0,0.0,88,0.00,,,0.00,meteohub,2013-07-31 05:32:00,
2013-07-31 01:37:00,63.9,60.3,30.10,WSW,250,0.0,0.0,88,0.00,,,0.00,meteohub,2013-07-31 05:37:00,
2013-07-31 01:42:00,63.9,60.3,30.10,WSW,250,0.0,0.0,88,0.00,,,0.00,meteohub,2013-07-31 05:42:00,
2013-07-31 01:47:00,63.9,60.3,30.10,WSW,250,0.0,0.0,88,0.00,,,0.00,meteohub,2013-07-31 05:47:00,
2013-07-31 01:52:00,63.9,60.3,30.10,WSW,250,0.0,0.0,88,0.00,,,0.00,meteohub,2013-07-31 05:52:00,
2013-07-31 01:57:00,63.7,60.1,30.11,WSW,250,0.0,0.0,88,0.00,,,0.00,meteohub,2013-07-31 05:57:00,
2013-07-31 02:02:00,63.7,60.1,30.11,WSW,250,0.0,0.0,88,0.00,,,0.00,meteohub,2013-07-31 06:02:00,
2013-07-31 02:07:00,63.7,60.4,30.11,WSW,250,0.0,0.0,89,0.00,,,0.00,meteohub,2013-07-31 06:07:00,
2013-07-31 02:12:00,63.5,60.3,30.11,WSW,250,0.0,0.0,89,0.00,,,0.00,meteohub,2013-07-31 06:12:00,
2013-07-31 02:17:00,63.3,60.1,30.10,WSW,250,0.0,0.0,89,0.00,,,0.00,meteohub,2013-07-31 06:17:00,
2013-07-31 02:22:00,63.3,60.1,30.11,WSW,250,0.0,0.0,89,0.00,,,0.00,meteohub,2013-07-31 06:22:00,
2013-07-31 02:27:00,63.1,59.9,30.11,WSW,250,0.0,0.0,89,0.00,,,0.00,meteohub,2013-07-31 06:27:00,
2013-07-31 02:32:00,63.1,59.9,30.11,WSW,250,0.0,0.0,89,0.00,,,0.00,meteohub,2013-07-31 06:32:00,
2013-07-31 02:37:00,63.0,59.7,30.10,WSW,250,0.0,0.0,89,0.00,,,0.00,meteohub,2013-07-31 06:37:00,
2013-07-31 02:43:00,63.0,59.9,30.10,WSW,250,0.0,0.0,90,0.00,,,0.00,meteohub,2013-07-31 06:43:00,
2013-07-31 02:48:00,63.0,59.9,30.10,WSW,250,0.0,0.0,90,0.00,,,0.00,meteohub,2013-07-31 06:48:00,
2013-07-31 02:53:00,62.8,59.7,30.11,WSW,250,0.0,0.0,90,0.00,,,0.00,meteohub,2013-07-31 06:53:00,
2013-07-31 02:57:00,62.8,59.7,30.11,WSW,250,0.0,0.0,90,0.00,,,0.00,meteohub,2013-07-31 06:57:00,
2013-07-31 03:03:00,62.8,59.7,30.11,WSW,250,0.0,0.0,90,0.00,,,0.00,meteohub,2013-07-31 07:03:00,
2013-07-31 03:08:00,62.6,59.5,30.11,WSW,250,0.0,0.0,90,0.00,,,0.00,meteohub,2013-07-31 07:08:00,
2013-07-31 03:13:00,62.6,59.5,30.11,WSW,250,0.0,0.0,90,0.00,,,0.00,meteohub,2013-07-31 07:13:00,
2013-07-31 03:18:00,62.4,59.7,30.11,WSW,250,0.0,0.0,91,0.00,,,0.00,meteohub,2013-07-31 07:18:00,
2013-07-31 03:23:00,62.4,59.7,30.11,WSW,250,0.0,0.0,91,0.00,,,0.00,meteohub,2013-07-31 07:23:00,
2013-07-31 03:28:00,62.2,59.5,30.11,WSW,250,0.0,0.0,91,0.00,,,0.00,meteohub,2013-07-31 07:28:00,
2013-07-31 03:33:00,62.2,59.5,30.11,WSW,250,0.0,0.0,91,0.00,,,0.00,meteohub,2013-07-31 07:33:00,
2013-07-31 03:38:00,62.4,60.1,30.11,WSW,250,0.0,0.0,92,0.00,,,0.00,meteohub,2013-07-31 07:38:00,
2013-07-31 03:43:00,62.4,60.1,30.11,WSW,252,0.0,0.0,92,0.00,,,0.00,meteohub,2013-07-31 07:43:00,
2013-07-31 03:48:00,62.4,60.1,30.10,WSW,250,0.0,0.0,92,0.00,,,0.00,meteohub,2013-07-31 07:48:00,
2013-07-31 03:53:00,62.2,59.9,30.11,WSW,250,0.0,0.0,92,0.00,,,0.00,meteohub,2013-07-31 07:53:00,
2013-07-31 03:58:00,62.1,59.7,30.11,WSW,250,0.0,0.0,92,0.00,,,0.00,meteohub,2013-07-31 07:58:00,
2013-07-31 04:03:00,61.9,59.9,30.11,NW,305,0.0,0.0,93,0.00,,,0.00,meteohub,2013-07-31 08:03:00,
2013-07-31 04:08:00,61.9,59.9,30.11,NW,313,0.0,0.0,93,0.00,,,0.00,meteohub,2013-07-31 08:08:00,
2013-07-31 04:13:00,61.7,59.7,30.11,NW,313,0.0,0.0,93,0.00,,,0.00,meteohub,2013-07-31 08:13:00,
2013-07-31 04:18:00,61.5,59.5,30.11,NW,314,0.0,0.0,93,0.00,,,0.00,meteohub,2013-07-31 08:18:00,
2013-07-31 04:23:00,61.0,59.0,30.11,NW,314,0.0,0.0,93,0.00,,,0.00,meteohub,2013-07-31 08:23:00,
2013-07-31 04:28:00,61.0,59.0,30.11,NW,314,0.0,0.0,93,0.00,,,0.00,meteohub,2013-07-31 08:28:00,
2013-07-31 04:33:00,61.0,59.0,30.11,North,-999,-999.0,0.0,93,0.00,,,0.00,meteohub,2013-07-31 08:33:00,
2013-07-31 06:53:00,62.4,61.3,30.13,North,-999,-999.0,-999.0,96,-99.99,,,0.00,meteohub,2013-07-31 10:53:00,
2013-07-31 06:58:00,62.8,61.7,30.13,North,-999,-999.0,-999.0,96,-99.99,,,0.00,meteohub,2013-07-31 10:58:00,
2013-07-31 07:03:00,63.0,61.9,30.13,NW,314,0.0,-999.0,96,0.00,,,0.00,meteohub,2013-07-31 11:03:00,
2013-07-31 07:08:00,63.3,62.2,30.13,NW,313,0.0,0.0,96,0.00,,,0.00,meteohub,2013-07-31 11:08:00,
2013-07-31 07:13:00,63.5,62.4,30.13,NW,313,0.0,0.0,96,0.00,,,0.00,meteohub,2013-07-31 11:13:00,
2013-07-31 07:18:00,63.9,62.8,30.13,North,4,0.0,0.0,96,0.00,,,0.00,meteohub,2013-07-31 11:18:00,
2013-07-31 07:23:00,64.4,63.3,30.14,North,1,0.0,0.0,96,0.00,,,0.00,meteohub,2013-07-31 11:23:00,
2013-07-31 07:28:00,64.9,63.5,30.14,NNE,32,0.0,0.0,95,0.00,,,0.00,meteohub,2013-07-31 11:28:00,
2013-07-31 07:33:00,65.5,63.7,30.14,NNE,32,0.0,0.0,94,0.00,,,0.00,meteohub,2013-07-31 11:33:00,
2013-07-31 07:38:00,65.5,63.3,30.13,SE,136,0.0,0.0,93,0.00,,,0.00,meteohub,2013-07-31 11:38:00,
2013-07-31 07:43:00,65.7,63.0,30.13,SE,136,0.0,1.0,91,0.00,,,0.00,meteohub,2013-07-31 11:43:00,
2013-07-31 07:48:00,66.2,63.1,30.14,SE,133,0.0,1.0,90,0.00,,,0.00,meteohub,2013-07-31 11:48:00,
2013-07-31 07:53:00,66.6,62.6,30.14,SE,133,0.0,1.0,87,0.00,,,0.00,meteohub,2013-07-31 11:53:00,
2013-07-31 07:58:00,67.1,62.8,30.14,ESE,115,0.0,0.0,86,0.00,,,0.00,meteohub,2013-07-31 11:58:00,
2013-07-31 08:03:00,67.6,62.6,30.14,East,85,0.0,0.0,84,0.00,,,0.00,meteohub,2013-07-31 12:03:00,
2013-07-31 08:08:00,68.2,62.4,30.14,East,81,0.0,2.0,82,0.00,,,0.00,meteohub,2013-07-31 12:08:00,
2013-07-31 08:13:00,68.5,62.4,30.13,East,80,0.0,2.0,81,0.00,,,0.00,meteohub,2013-07-31 12:13:00,
2013-07-31 08:18:00,68.7,61.9,30.14,East,101,0.0,2.0,79,0.00,,,0.00,meteohub,2013-07-31 12:18:00,
2013-07-31 08:23:00,69.1,61.9,30.14,ENE,72,0.0,2.0,78,0.00,,,0.00,meteohub,2013-07-31 12:23:00,
2013-07-31 08:28:00,69.4,62.2,30.14,ENE,73,0.0,3.0,78,0.00,,,0.00,meteohub,2013-07-31 12:28:00,
2013-07-31 08:33:00,69.6,62.1,30.14,ENE,73,0.0,3.0,77,0.00,,,0.00,meteohub,2013-07-31 12:33:00,
2013-07-31 08:38:00,70.0,62.4,30.13,East,79,0.0,3.0,77,0.00,,,0.00,meteohub,2013-07-31 12:38:00,
2013-07-31 08:43:00,70.3,62.4,30.13,East,79,0.0,1.0,76,0.00,,,0.00,meteohub,2013-07-31 12:43:00,
2013-07-31 08:48:00,70.5,62.2,30.13,East,79,1.0,1.0,75,0.00,,,0.00,meteohub,2013-07-31 12:48:00,
2013-07-31 08:53:00,71.1,63.5,30.13,East,81,0.0,1.0,77,0.00,,,0.00,meteohub,2013-07-31 12:53:00,
2013-07-31 08:58:00,71.4,63.5,30.13,East,87,0.0,1.0,76,0.00,,,0.00,meteohub,2013-07-31 12:58:00,
2013-07-31 09:03:00,71.6,63.0,30.13,East,90,0.0,1.0,74,0.00,,,0.00,meteohub,2013-07-31 13:03:00,
2013-07-31 09:08:00,72.0,63.7,30.13,ESE,110,0.0,3.0,75,0.00,,,0.00,meteohub,2013-07-31 13:08:00,
2013-07-31 09:13:00,72.5,63.0,30.13,ESE,120,0.0,3.0,72,0.00,,,0.00,meteohub,2013-07-31 13:13:00,
2013-07-31 09:18:00,73.0,63.1,30.13,WSW,249,0.0,3.0,71,0.00,,,0.00,meteohub,2013-07-31 13:18:00,
2013-07-31 09:23:00,73.6,63.7,30.13,East,96,0.0,1.0,71,0.00,,,0.00,meteohub,2013-07-31 13:23:00,
2013-07-31 09:28:00,73.6,62.8,30.13,East,97,0.0,1.0,69,0.00,,,0.00,meteohub,2013-07-31 13:28:00,
2013-07-31 09:33:00,73.9,63.5,30.13,East,90,0.0,1.0,70,0.00,,,0.00,meteohub,2013-07-31 13:33:00,
2013-07-31 09:38:00,74.5,63.7,30.13,East,91,0.0,2.0,69,0.00,,,0.00,meteohub,2013-07-31 13:38:00,
2013-07-31 09:43:00,75.2,63.5,30.13,NE,54,0.0,2.0,67,0.00,,,0.00,meteohub,2013-07-31 13:43:00,
2013-07-31 09:48:00,75.6,63.3,30.13,NE,53,0.0,3.0,66,0.00,,,0.00,meteohub,2013-07-31 13:48:00,
2013-07-31 09:53:00,75.9,64.6,30.13,East,82,0.0,3.0,68,0.00,,,0.00,meteohub,2013-07-31 13:53:00,
2013-07-31 09:58:00,75.9,63.3,30.13,East,79,0.0,2.0,65,0.00,,,0.00,meteohub,2013-07-31 13:58:00,
2013-07-31 10:03:00,76.3,63.1,30.13,ENE,78,0.0,5.0,64,0.00,,,0.00,meteohub,2013-07-31 14:03:00,
2013-07-31 10:08:00,76.5,63.0,30.13,SSE,166,0.0,5.0,63,0.00,,,0.00,meteohub,2013-07-31 14:08:00,
2013-07-31 10:13:00,76.8,63.7,30.13,North,356,0.0,2.0,64,0.00,,,0.00,meteohub,2013-07-31 14:13:00,
2013-07-31 10:18:00,76.8,63.7,30.13,East,89,0.0,1.0,64,0.00,,,0.00,meteohub,2013-07-31 14:18:00,
2013-07-31 10:23:00,76.6,62.6,30.13,WSW,256,0.0,1.0,62,0.00,,,0.00,meteohub,2013-07-31 14:23:00,
2013-07-31 10:28:00,77.0,63.5,30.13,WNW,288,0.0,2.0,63,0.00,,,0.00,meteohub,2013-07-31 14:28:00,
2013-07-31 10:33:00,77.4,62.4,30.13,SE,129,0.0,2.0,60,0.00,,,0.00,meteohub,2013-07-31 14:33:00,
2013-07-31 10:38:00,77.7,62.8,30.12,East,86,0.0,0.0,60,0.00,,,0.00,meteohub,2013-07-31 14:38:00,
2013-07-31 10:43:00,78.1,63.1,30.12,East,94,0.0,0.0,60,0.00,,,0.00,meteohub,2013-07-31 14:43:00,
2013-07-31 10:48:00,78.3,62.2,30.12,SE,138,0.0,2.0,58,0.00,,,0.00,meteohub,2013-07-31 14:48:00,
2013-07-31 10:53:00,78.3,62.8,30.12,East,86,0.0,2.0,59,0.00,,,0.00,meteohub,2013-07-31 14:53:00,
2013-07-31 10:58:00,78.8,63.7,30.12,East,86,0.0,2.0,60,0.00,,,0.00,meteohub,2013-07-31 14:58:00,
2013-07-31 11:03:00,79.0,63.0,30.12,East,86,0.0,2.0,58,0.00,,,0.00,meteohub,2013-07-31 15:03:00,
2013-07-31 11:08:00,79.0,62.4,30.12,SSW,211,0.0,2.0,57,0.00,,,0.00,meteohub,2013-07-31 15:08:00,
2013-07-31 11:14:00,79.2,63.1,30.11,WSW,248,0.0,1.0,58,0.00,,,0.00,meteohub,2013-07-31 15:14:00,
2013-07-31 11:19:00,79.2,62.1,30.11,WSW,253,0.0,2.0,56,0.00,,,0.00,meteohub,2013-07-31 15:19:00,
2013-07-31 11:24:00,78.6,63.5,30.11,WSW,253,0.0,2.0,60,0.00,,,0.00,meteohub,2013-07-31 15:24:00,
2013-07-31 11:29:00,78.8,62.8,30.11,West,260,0.0,2.0,58,0.00,,,0.00,meteohub,2013-07-31 15:29:00,
2013-07-31 11:34:00,79.0,61.9,30.11,ENE,77,2.0,0.0,56,0.00,,,0.00,meteohub,2013-07-31 15:34:00,
2013-07-31 11:39:00,78.4,61.0,30.11,East,89,0.0,2.0,55,0.00,,,0.00,meteohub,2013-07-31 15:39:00,
2013-07-31 11:44:00,78.4,61.0,30.11,WSW,241,0.0,2.0,55,0.00,,,0.00,meteohub,2013-07-31 15:44:00,
2013-07-31 11:49:00,79.0,63.5,30.11,WSW,248,0.0,2.0,59,0.00,,,0.00,meteohub,2013-07-31 15:49:00,
2013-07-31 11:54:00,79.3,61.7,30.11,ENE,75,0.0,3.0,55,0.00,,,0.00,meteohub,2013-07-31 15:54:00,
2013-07-31 11:59:00,79.5,59.2,30.11,East,86,2.0,3.0,50,0.00,,,0.00,meteohub,2013-07-31 15:59:00,
2013-07-31 12:04:00,79.5,62.4,30.10,East,86,0.0,3.0,56,0.00,,,0.00,meteohub,2013-07-31 16:04:00,
2013-07-31 12:09:00,80.2,61.5,30.10,West,278,0.0,3.0,53,0.00,,,0.00,meteohub,2013-07-31 16:09:00,
2013-07-31 12:14:00,80.8,60.4,30.10,West,271,0.0,3.0,50,0.00,,,0.00,meteohub,2013-07-31 16:14:00,
2013-07-31 12:19:00,81.1,61.9,30.10,WSW,252,0.0,3.0,52,0.00,,,0.00,meteohub,2013-07-31 16:19:00,
2013-07-31 12:24:00,81.0,59.4,30.10,WNW,284,1.0,3.0,48,0.00,,,0.00,meteohub,2013-07-31 16:24:00,
2013-07-31 12:29:00,80.4,59.5,30.10,WSW,250,0.0,4.0,49,0.00,,,0.00,meteohub,2013-07-31 16:29:00,
2013-07-31 12:34:00,80.2,59.4,30.10,ENE,75,1.0,4.0,49,0.00,,,0.00,meteohub,2013-07-31 16:34:00,
2013-07-31 12:39:00,80.2,60.4,30.10,West,269,0.0,4.0,51,0.00,,,0.00,meteohub,2013-07-31 16:39:00,
2013-07-31 12:44:00,80.1,59.7,30.09,NW,323,0.0,3.0,50,0.00,,,0.00,meteohub,2013-07-31 16:44:00,
2013-07-31 12:49:00,79.9,60.6,30.09,West,276,0.0,3.0,52,0.00,,,0.00,meteohub,2013-07-31 16:49:00,
2013-07-31 12:54:00,79.5,58.6,30.09,WSW,252,1.0,0.0,49,0.00,,,0.00,meteohub,2013-07-31 16:54:00,
2013-07-31 12:59:00,79.3,61.2,30.09,WSW,256,0.0,4.0,54,0.00,,,0.00,meteohub,2013-07-31 16:59:00,
2013-07-31 13:04:00,79.5,60.4,30.09,East,87,0.0,4.0,52,0.00,,,0.00,meteohub,2013-07-31 17:04:00,
2013-07-31 13:09:00,79.5,62.4,30.09,ENE,70,0.0,4.0,56,0.00,,,0.00,meteohub,2013-07-31 17:09:00,
2013-07-31 13:14:00,79.5,61.3,30.09,SW,229,0.0,3.0,54,0.00,,,0.00,meteohub,2013-07-31 17:14:00,
2013-07-31 13:19:00,79.9,60.6,30.09,SW,229,0.0,3.0,52,0.00,,,0.00,meteohub,2013-07-31 17:19:00,
2013-07-31 13:24:00,80.4,62.2,30.09,ESE,105,0.0,3.0,54,0.00,,,0.00,meteohub,2013-07-31 17:24:00,
2013-07-31 13:29:00,80.8,63.1,30.08,NNW,327,0.0,4.0,55,0.00,,,0.00,meteohub,2013-07-31 17:29:00,
2013-07-31 13:34:00,81.0,61.2,30.08,East,89,0.0,4.0,51,0.00,,,0.00,meteohub,2013-07-31 17:34:00,
2013-07-31 13:39:00,81.1,60.8,30.08,SW,233,1.0,4.0,50,0.00,,,0.00,meteohub,2013-07-31 17:39:00,
2013-07-31 13:44:00,81.9,62.4,30.08,ENE,72,0.0,3.0,52,0.00,,,0.00,meteohub,2013-07-31 17:44:00,
2013-07-31 13:49:00,81.7,61.2,30.08,ENE,77,1.0,3.0,50,0.00,,,0.00,meteohub,2013-07-31 17:49:00,
2013-07-31 13:54:00,81.5,62.8,30.08,WSW,250,0.0,3.0,53,0.00,,,0.00,meteohub,2013-07-31 17:54:00,
2013-07-31 13:59:00,81.7,62.4,30.08,WSW,258,0.0,2.0,52,0.00,,,0.00,meteohub,2013-07-31 17:59:00,
2013-07-31 14:04:00,81.7,63.5,30.08,SW,224,0.0,3.0,54,0.00,,,0.00,meteohub,2013-07-31 18:04:00,
2013-07-31 14:09:00,81.3,62.1,30.08,WSW,252,0.0,3.0,52,0.00,,,0.00,meteohub,2013-07-31 18:09:00,
2013-07-31 14:14:00,81.0,62.8,30.08,WSW,252,0.0,3.0,54,0.00,,,0.00,meteohub,2013-07-31 18:14:00,
2013-07-31 14:19:00,81.0,64.2,30.07,WSW,258,0.0,3.0,57,0.00,,,0.00,meteohub,2013-07-31 18:19:00,
2013-07-31 14:24:00,81.3,63.7,30.07,West,274,0.0,0.0,55,0.00,,,0.00,meteohub,2013-07-31 18:24:00,
2013-07-31 14:29:00,81.7,63.9,30.07,WSW,246,0.0,2.0,55,0.00,,,0.00,meteohub,2013-07-31 18:29:00,
2013-07-31 14:34:00,81.5,63.3,30.07,West,277,0.0,2.0,54,0.00,,,0.00,meteohub,2013-07-31 18:34:00,
2013-07-31 14:39:00,81.3,63.7,30.07,West,263,0.0,2.0,55,0.00,,,0.00,meteohub,2013-07-31 18:39:00,
2013-07-31 14:44:00,81.0,62.2,30.07,ESE,120,0.0,2.0,53,0.00,,,0.00,meteohub,2013-07-31 18:44:00,
2013-07-31 14:50:00,81.7,63.0,30.06,WSW,250,0.0,2.0,53,0.00,,,0.00,meteohub,2013-07-31 18:50:00,
2013-07-31 14:54:00,81.7,62.4,30.06,SE,134,1.0,2.0,52,0.00,,,0.00,meteohub,2013-07-31 18:54:00,
2013-07-31 14:59:00,81.3,62.1,30.06,ESE,120,0.0,2.0,52,0.00,,,0.00,meteohub,2013-07-31 18:59:00,
2013-07-31 15:05:00,81.1,63.5,30.06,ENE,70,0.0,2.0,55,0.00,,,0.00,meteohub,2013-07-31 19:05:00,
2013-07-31 15:10:00,80.8,62.6,30.06,ENE,75,0.0,2.0,54,0.00,,,0.00,meteohub,2013-07-31 19:10:00,
2013-07-31 15:15:00,80.8,62.6,30.06,ENE,75,0.0,2.0,54,0.00,,,0.00,meteohub,2013-07-31 19:15:00,
2013-07-31 15:20:00,80.8,63.1,30.06,West,263,0.0,2.0,55,0.00,,,0.00,meteohub,2013-07-31 19:20:00,
2013-07-31 15:25:00,80.4,63.3,30.06,West,263,0.0,2.0,56,0.00,,,0.00,meteohub,2013-07-31 19:25:00,
2013-07-31 15:30:00,80.2,63.7,30.06,WSW,255,0.0,1.0,57,0.00,,,0.00,meteohub,2013-07-31 19:30:00,
2013-07-31 15:35:00,80.1,63.9,30.06,WSW,255,0.0,1.0,58,0.00,,,0.00,meteohub,2013-07-31 19:35:00,
2013-07-31 15:40:00,79.9,63.9,30.06,WSW,257,0.0,0.0,58,0.00,,,0.00,meteohub,2013-07-31 19:40:00,
2013-07-31 15:45:00,80.1,63.9,30.05,West,277,0.0,0.0,58,0.00,,,0.00,meteohub,2013-07-31 19:45:00,
2013-07-31 15:50:00,80.4,64.2,30.05,West,277,0.0,0.0,58,0.00,,,0.00,meteohub,2013-07-31 19:50:00,
2013-07-31 15:55:00,80.8,64.0,30.05,East,82,0.0,0.0,57,0.00,,,0.00,meteohub,2013-07-31 19:55:00,
2013-07-31 16:00:00,80.8,62.6,30.05,ENE,74,0.0,4.0,54,0.00,,,0.00,meteohub,2013-07-31 20:00:00,
2013-07-31 16:05:00,81.0,64.8,30.04,WSW,255,1.0,4.0,58,0.00,,,0.00,meteohub,2013-07-31 20:05:00,
2013-07-31 16:10:00,81.0,63.3,30.04,WSW,255,0.0,4.0,55,0.00,,,0.00,meteohub,2013-07-31 20:10:00,
2013-07-31 16:15:00,80.8,63.1,30.04,WSW,253,1.0,4.0,55,0.00,,,0.00,meteohub,2013-07-31 20:15:00,
2013-07-31 16:20:00,80.6,62.4,30.04,SW,229,3.0,3.0,54,0.00,,,0.00,meteohub,2013-07-31 20:20:00,
2013-07-31 16:25:00,80.1,62.4,30.04,WSW,242,0.0,5.0,55,0.00,,,0.00,meteohub,2013-07-31 20:25:00,
2013-07-31 16:30:00,79.7,64.0,30.04,WSW,255,0.0,5.0,59,0.00,,,0.00,meteohub,2013-07-31 20:30:00,
2013-07-31 16:35:00,79.7,63.7,30.04,WSW,250,0.0,5.0,58,0.00,,,0.00,meteohub,2013-07-31 20:35:00,
2013-07-31 16:40:00,79.3,62.2,30.04,WSW,255,1.0,4.0,56,0.00,,,0.00,meteohub,2013-07-31 20:40:00,
2013-07-31 16:45:00,79.3,63.3,30.04,WSW,239,0.0,4.0,58,0.00,,,0.00,meteohub,2013-07-31 20:45:00,
2013-07-31 16:50:00,79.3,63.7,30.04,WSW,239,1.0,4.0,59,0.00,,,0.00,meteohub,2013-07-31 20:50:00,
2013-07-31 16:55:00,79.0,61.9,30.04,WSW,242,0.0,4.0,56,0.00,,,0.00,meteohub,2013-07-31 20:55:00,
2013-07-31 17:00:00,78.8,62.2,30.04,WSW,249,2.0,5.0,57,0.00,,,0.00,meteohub,2013-07-31 21:00:00,
2013-07-31 17:05:00,79.0,63.0,30.04,West,266,0.0,5.0,58,0.00,,,0.00,meteohub,2013-07-31 21:05:00,
2013-07-31 17:10:00,78.8,62.8,30.04,WSW,257,0.0,5.0,58,0.00,,,0.00,meteohub,2013-07-31 21:10:00,
2013-07-31 17:15:00,79.0,63.0,30.04,WSW,242,0.0,3.0,58,0.00,,,0.00,meteohub,2013-07-31 21:15:00,
2013-07-31 17:20:00,78.8,62.8,30.04,WSW,242,2.0,4.0,58,0.00,,,0.00,meteohub,2013-07-31 21:20:00,
2013-07-31 17:25:00,78.4,63.3,30.04,West,268,0.0,4.0,60,0.00,,,0.00,meteohub,2013-07-31 21:25:00,
2013-07-31 17:30:00,78.1,63.5,30.04,WSW,245,0.0,4.0,61,0.00,,,0.00,meteohub,2013-07-31 21:30:00,
2013-07-31 17:35:00,78.1,64.0,30.04,SW,233,0.0,4.0,62,0.00,,,0.00,meteohub,2013-07-31 21:35:00,
2013-07-31 17:40:00,77.7,63.1,30.04,WSW,239,1.0,3.0,61,0.00,,,0.00,meteohub,2013-07-31 21:40:00,
2013-07-31 17:45:00,77.7,63.7,30.04,WSW,253,0.0,3.0,62,0.00,,,0.00,meteohub,2013-07-31 21:45:00,
2013-07-31 17:50:00,77.7,63.7,30.04,WSW,240,0.0,3.0,62,0.00,,,0.00,meteohub,2013-07-31 21:50:00,
2013-07-31 17:55:00,78.1,63.5,30.04,WSW,250,0.0,2.0,61,0.00,,,0.00,meteohub,2013-07-31 21:55:00,
2013-07-31 18:00:00,78.3,63.3,30.04,West,260,0.0,2.0,60,0.00,,,0.00,meteohub,2013-07-31 22:00:00,
2013-07-31 18:05:00,78.3,63.7,30.03,WSW,239,2.0,0.0,61,0.00,,,0.00,meteohub,2013-07-31 22:05:00,
2013-07-31 18:10:00,77.9,63.3,30.03,WSW,245,2.0,2.0,61,0.00,,,0.00,meteohub,2013-07-31 22:10:00,
2013-07-31 18:15:00,77.5,63.9,30.03,WSW,249,0.0,2.0,63,0.00,,,0.00,meteohub,2013-07-31 22:15:00,
2013-07-31 18:20:00,77.5,63.5,30.03,SW,229,0.0,3.0,62,0.00,,,0.00,meteohub,2013-07-31 22:20:00,
2013-07-31 18:25:00,77.4,63.9,30.03,WSW,256,0.0,3.0,63,0.00,,,0.00,meteohub,2013-07-31 22:25:00,
2013-07-31 18:30:00,77.4,63.9,30.03,WSW,242,2.0,6.0,63,0.00,,,0.00,meteohub,2013-07-31 22:30:00,
2013-07-31 18:35:00,77.2,63.7,30.03,WSW,245,0.0,6.0,63,0.00,,,0.00,meteohub,2013-07-31 22:35:00,
2013-07-31 18:40:00,77.2,64.0,30.03,West,266,0.0,6.0,64,0.00,,,0.00,meteohub,2013-07-31 22:40:00,
2013-07-31 18:45:00,77.2,64.0,30.03,WSW,255,0.0,4.0,64,0.00,,,0.00,meteohub,2013-07-31 22:45:00,
2013-07-31 18:50:00,77.2,64.0,30.03,WSW,249,0.0,4.0,64,0.00,,,0.00,meteohub,2013-07-31 22:50:00,
2013-07-31 18:55:00,76.8,63.7,30.03,WSW,252,0.0,5.0,64,0.00,,,0.00,meteohub,2013-07-31 22:55:00,
2013-07-31 19:00:00,76.6,64.0,30.03,WSW,245,0.0,5.0,65,0.00,,,0.00,meteohub,2013-07-31 23:00:00,
2013-07-31 19:05:00,76.5,63.9,30.03,SW,219,0.0,2.0,65,0.00,,,0.00,meteohub,2013-07-31 23:05:00,
2013-07-31 19:10:00,76.3,63.7,30.03,WSW,239,2.0,2.0,65,0.00,,,0.00,meteohub,2013-07-31 23:10:00,
2013-07-31 19:15:00,76.3,63.7,30.03,WSW,245,0.0,4.0,65,0.00,,,0.00,meteohub,2013-07-31 23:15:00,
2013-07-31 19:20:00,75.9,63.7,30.03,WSW,243,0.0,4.0,66,0.00,,,0.00,meteohub,2013-07-31 23:20:00,
2013-07-31 19:25:00,76.1,63.9,30.03,WSW,255,1.0,4.0,66,0.00,,,0.00,meteohub,2013-07-31 23:25:00,
2013-07-31 19:31:00,76.5,63.9,30.03,WSW,249,0.0,3.0,65,0.00,,,0.00,meteohub,2013-07-31 23:31:00,
2013-07-31 19:36:00,76.6,64.4,30.03,WSW,251,0.0,3.0,66,0.00,,,0.00,meteohub,2013-07-31 23:36:00,
2013-07-31 19:41:00,76.1,63.5,30.03,WSW,240,0.0,3.0,65,0.00,,,0.00,meteohub,2013-07-31 23:41:00,
2013-07-31 19:46:00,75.9,63.7,30.02,WSW,237,1.0,3.0,66,0.00,,,0.00,meteohub,2013-07-31 23:46:00,
2013-07-31 19:51:00,75.7,64.0,30.02,WSW,245,1.0,4.0,67,0.00,,,0.00,meteohub,2013-07-31 23:51:00,
2013-07-31 19:56:00,75.6,63.9,30.02,SW,229,0.0,4.0,67,0.00,,,0.00,meteohub,2013-07-31 23:56:00,
2013-07-31 20:01:00,75.4,63.7,30.02,WSW,249,0.0,4.0,67,0.00,,,0.00,meteohub,2013-08-01 00:01:00,
2013-07-31 20:06:00,75.0,63.3,30.02,SW,226,0.0,3.0,67,0.00,,,0.00,meteohub,2013-08-01 00:06:00,
2013-07-31 20:11:00,74.8,63.5,30.02,WSW,243,0.0,3.0,68,0.00,,,0.00,meteohub,2013-08-01 00:11:00,
2013-07-31 20:16:00,74.8,63.5,30.02,WSW,249,1.0,3.0,68,0.00,,,0.00,meteohub,2013-08-01 00:16:00,
2013-07-31 20:21:00,75.0,64.2,30.02,WSW,249,0.0,4.0,69,0.00,,,0.00,meteohub,2013-08-01 00:21:00,
2013-07-31 20:26:00,75.0,64.2,30.02,WSW,255,0.0,4.0,69,0.00,,,0.00,meteohub,2013-08-01 00:26:00,
2013-07-31 20:31:00,74.8,64.0,30.02,WSW,253,0.0,2.0,69,0.00,,,0.00,meteohub,2013-08-01 00:31:00,
2013-07-31 20:36:00,74.5,64.0,30.02,West,274,0.0,1.0,70,0.00,,,0.00,meteohub,2013-08-01 00:36:00,
2013-07-31 20:41:00,74.1,63.7,30.02,WSW,238,0.0,1.0,70,0.00,,,0.00,meteohub,2013-08-01 00:41:00,
2013-07-31 20:46:00,73.9,63.5,30.02,WSW,249,1.0,2.0,70,0.00,,,0.00,meteohub,2013-08-01 00:46:00,
2013-07-31 20:51:00,73.9,63.9,30.02,WSW,248,1.0,5.0,71,0.00,,,0.00,meteohub,2013-08-01 00:51:00,
2013-07-31 20:56:00,73.8,63.7,30.03,WSW,253,1.0,5.0,71,0.00,,,0.00,meteohub,2013-08-01 00:56:00,
2013-07-31 21:01:00,73.6,63.7,30.03,WSW,249,0.0,4.0,71,0.00,,,0.00,meteohub,2013-08-01 01:01:00,
2013-07-31 21:06:00,73.6,63.7,30.03,WSW,242,0.0,3.0,71,0.00,,,0.00,meteohub,2013-08-01 01:06:00,
2013-07-31 21:11:00,73.6,64.0,30.03,WSW,244,1.0,4.0,72,0.00,,,0.00,meteohub,2013-08-01 01:11:00,
2013-07-31 21:16:00,73.2,63.7,30.03,West,266,0.0,4.0,72,0.00,,,0.00,meteohub,2013-08-01 01:16:00,
2013-07-31 21:21:00,73.0,63.5,30.03,WSW,237,0.0,1.0,72,0.00,,,0.00,meteohub,2013-08-01 01:21:00,
2013-07-31 21:26:00,72.9,63.7,30.03,WSW,239,0.0,2.0,73,0.00,,,0.00,meteohub,2013-08-01 01:26:00,
2013-07-31 21:31:00,72.7,63.5,30.03,WSW,238,0.0,2.0,73,0.00,,,0.00,meteohub,2013-08-01 01:31:00,
2013-07-31 21:36:00,72.7,63.5,30.03,WSW,238,0.0,2.0,73,0.00,,,0.00,meteohub,2013-08-01 01:36:00,
2013-07-31 21:41:00,72.3,63.1,30.03,SW,235,1.0,1.0,73,0.00,,,0.00,meteohub,2013-08-01 01:41:00,
2013-07-31 21:46:00,72.3,63.5,30.03,WSW,246,2.0,3.0,74,0.00,,,0.00,meteohub,2013-08-01 01:46:00,
2013-07-31 21:51:00,72.3,63.5,30.03,West,264,0.0,3.0,74,0.00,,,0.00,meteohub,2013-08-01 01:51:00,
2013-07-31 21:56:00,72.1,63.3,30.03,West,264,0.0,2.0,74,0.00,,,0.00,meteohub,2013-08-01 01:56:00,
2013-07-31 22:01:00,72.0,63.1,30.03,West,264,0.0,2.0,74,0.00,,,0.00,meteohub,2013-08-01 02:01:00,
2013-07-31 22:06:00,71.8,63.5,30.03,SSW,204,0.0,1.0,75,0.00,,,0.00,meteohub,2013-08-01 02:06:00,
2013-07-31 22:11:00,71.8,63.5,30.03,SSW,204,0.0,1.0,75,0.00,,,0.00,meteohub,2013-08-01 02:11:00,
2013-07-31 22:16:00,71.4,63.5,30.03,SSW,210,0.0,0.0,76,0.00,,,0.00,meteohub,2013-08-01 02:16:00,
2013-07-31 22:21:00,71.4,63.5,30.03,WSW,238,0.0,0.0,76,0.00,,,0.00,meteohub,2013-08-01 02:21:00,
2013-07-31 22:26:00,71.4,63.5,30.03,WSW,237,0.0,2.0,76,0.00,,,0.00,meteohub,2013-08-01 02:26:00,
2013-07-31 22:31:00,71.2,63.3,30.03,WSW,238,0.0,2.0,76,0.00,,,0.00,meteohub,2013-08-01 02:31:00,
2013-07-31 22:36:00,71.2,63.7,30.03,WSW,237,0.0,1.0,77,0.00,,,0.00,meteohub,2013-08-01 02:36:00,
2013-07-31 22:41:00,71.1,63.5,30.03,WSW,237,0.0,0.0,77,0.00,,,0.00,meteohub,2013-08-01 02:41:00,
2013-07-31 22:46:00,70.9,63.3,30.03,WSW,238,0.0,0.0,77,0.00,,,0.00,meteohub,2013-08-01 02:46:00,
2013-07-31 22:51:00,70.9,63.7,30.03,WSW,237,0.0,0.0,78,0.00,,,0.00,meteohub,2013-08-01 02:51:00,
2013-07-31 22:56:00,70.7,63.5,30.03,WSW,238,0.0,0.0,78,0.00,,,0.00,meteohub,2013-08-01 02:56:00,
2013-07-31 23:01:00,70.5,63.7,30.03,WSW,238,0.0,0.0,79,0.00,,,0.00,meteohub,2013-08-01 03:01:00,
2013-07-31 23:06:00,70.5,63.7,30.03,WSW,238,0.0,0.0,79,0.00,,,0.00,meteohub,2013-08-01 03:06:00,
2013-07-31 23:11:00,70.3,63.5,30.03,WSW,237,0.0,0.0,79,0.00,,,0.00,meteohub,2013-08-01 03:11:00,
2013-07-31 23:17:00,70.3,63.9,30.03,WSW,238,0.0,0.0,80,0.00,,,0.00,meteohub,2013-08-01 03:17:00,
2013-07-31 23:22:00,70.2,63.7,30.03,WSW,238,0.0,0.0,80,0.00,,,0.00,meteohub,2013-08-01 03:22:00,
2013-07-31 23:27:00,70.0,63.5,30.03,WSW,237,0.0,0.0,80,0.00,,,0.00,meteohub,2013-08-01 03:27:00,
2013-07-31 23:32:00,70.0,63.9,30.03,WSW,238,0.0,0.0,81,0.00,,,0.00,meteohub,2013-08-01 03:32:00,
2013-07-31 23:37:00,69.8,63.7,30.03,WSW,238,0.0,0.0,81,0.00,,,0.00,meteohub,2013-08-01 03:37:00,
2013-07-31 23:42:00,69.6,63.9,30.03,WSW,238,0.0,0.0,82,0.00,,,0.00,meteohub,2013-08-01 03:42:00,
2013-07-31 23:47:00,69.6,63.9,30.03,WSW,238,0.0,0.0,82,0.00,,,0.00,meteohub,2013-08-01 03:47:00,
2013-07-31 23:52:00,69.4,64.0,30.03,WSW,238,0.0,0.0,83,0.00,,,0.00,meteohub,2013-08-01 03:52:00,
2013-07-31 23:57:00,69.3,63.9,30.03,WSW,237,0.0,0.0,83,0.00,,,0.00,meteohub,2013-08-01 03:57:00,